Leeming, United Kingdom

5:19 AM GMT on February 07, 2016 (GMT +0000)
Leeming Air Base

Weather History for EGXE - November, 2012

Change the Weather History Date:

Tuesday, November 20, 2012

  Actual Average (EGNV) Record (EGNV)
Temperature  
Mean Temperature 52 °F -  
Max Temperature 57 °F 45 °F 57 °F (2012)
Min Temperature 48 °F 35 °F 21 °F (2004)
Degree Days  
Heating Degree Days 12    
Growing Degree Days 2 (Base 50)    
Moisture  
Dew Point 47 °F    
Average Humidity 84    
Maximum Humidity 100    
Minimum Humidity 60    
Precipitation  
Precipitation 0.02 in 0.07 in - ()
Sea Level Pressure  
Sea Level Pressure 29.59 in    
Wind  
Wind Speed 11 mph ()    
Max Wind Speed 20 mph    
Max Gust Speed -    
Visibility 6.3 miles    
Events Rain    
Averages and records for this station are not official NWS values.
T = Trace of Precipitation, MM = Missing Value Source: Averaged Metar Reports

Daily Weather History Graph

Daily Weather History Graph

Search for Another Location

Airport or City:

Trip Planner

Search our weather history database for the weather conditions in past years. The results will help you decide how hot, cold, wet, or windy it might be!

Date:

Astronomy

Nov. 20, 2012 Rise Set
Actual Time 7:45 AM GMT 3:58 PM GMT
Civil Twilight 7:04 AM GMT 4:38 PM GMT
Nautical Twilight 6:19 AM GMT 5:23 PM GMT
Astronomical Twilight 5:37 AM GMT 6:05 PM GMT
Moon 12:41 PM GMT (11/20) 11:49 PM GMT (11/20)
Length of Visible Light 9h 34m
Length of Day
8h 12m
Waxing Crescent, 49% of the Moon is Illuminated
Nov 20
Waxing Crescent
Nov 20
First Quarter
Nov 28
Full
Dec 6
Last Quarter
Dec 13
New

Hourly Weather History & Observations

Time (GMT) Temp. Dew Point Humidity Pressure Visibility Wind Dir Wind Speed Gust Speed Precip Events Conditions
12:50 AM 51.8 °F 46.4 °F 82% 29.62 in 6.2 mi SSE 10.4 mph - N/A   Scattered Clouds
1:50 AM 50.0 °F 44.6 °F 82% 29.65 in 6.2 mi SSE 10.4 mph - N/A   Scattered Clouds
2:50 AM 48 °F 45 °F 86% 29.64 in 7 mi East 6.9 mph - -   Mostly Cloudy
2:50 AM 48.2 °F 44.6 °F 87% 29.62 in 6.2 mi East 6.9 mph - N/A   Mostly Cloudy
3:50 AM 48.2 °F 46.4 °F 93% 29.62 in 5.0 mi ENE 10.4 mph - N/A   Mostly Cloudy
4:50 AM 48.2 °F 48.2 °F 100% 29.62 in - SE 6.9 mph - N/A   Mostly Cloudy
5:50 AM 49 °F 49 °F 98% 29.61 in 2 mi SSE 9.2 mph - - Rain Light Drizzle
5:50 AM 50.0 °F 48.2 °F 94% 29.59 in 2.5 mi SSE 9.2 mph - N/A   Light Drizzle
6:50 AM 50.0 °F 50.0 °F 100% 29.59 in 3.1 mi SSE 13.8 mph - N/A   Overcast
7:50 AM 51.8 °F 50.0 °F 94% 29.56 in 3.1 mi SSE 13.8 mph - N/A Rain Light Rain
8:50 AM 52 °F 50 °F 91% 29.57 in 4 mi SSE 15.0 mph - - Rain Light Rain
8:50 AM 51.8 °F 50.0 °F 94% 29.56 in 3.7 mi SSE 15.0 mph - N/A Rain Light Rain
9:50 AM 51.8 °F 50.0 °F 94% 29.53 in 5.0 mi SSE 19.6 mph - N/A   Overcast
10:50 AM 51.8 °F 51.8 °F 100% 29.50 in 3.7 mi SSE 16.1 mph - N/A Rain Rain
11:50 AM 54 °F 52 °F 90% 29.51 in 9 mi SSE 15.0 mph - - Rain Light Rain
11:50 AM 53.6 °F 51.8 °F 94% 29.50 in 6.2 mi SSE 15.0 mph - N/A   Overcast
12:50 PM 55.4 °F 53.6 °F 94% 29.50 in 6.2 mi SSE 18.4 mph - N/A   Overcast
1:50 PM 57.2 °F 53.6 °F 88% 29.47 in 6.2 mi SSE 17.3 mph - N/A   Mostly Cloudy
2:50 PM 56 °F 53 °F 88% 29.52 in 6 mi South 15.0 mph - - Rain Light Rain
2:50 PM 57.2 °F 53.6 °F 88% 29.50 in 6.2 mi South 15.0 mph - N/A Rain Light Rain
3:50 PM 55.4 °F 48.2 °F 77% 29.53 in 6.2 mi SW 18.4 mph - N/A   Mostly Cloudy
4:50 PM 53.6 °F 46.4 °F 77% 29.56 in 6.2 mi SSW 11.5 mph - N/A   Mostly Cloudy
5:50 PM 53 °F 44 °F 64% 29.60 in 16 mi South 13.8 mph - -   Partly Cloudy
5:50 PM 53.6 °F 44.6 °F 72% 29.59 in 6.2 mi South 13.8 mph - N/A   Mostly Cloudy
6:50 PM 53.6 °F 44.6 °F 72% 29.62 in 6.2 mi South 12.7 mph - N/A   Overcast
7:50 PM 51.8 °F 42.8 °F 71% 29.65 in 6.2 mi SSW 6.9 mph - N/A   Overcast
8:50 PM 51 °F 41 °F 60% 29.66 in 13 mi SSW 15.0 mph - -   Overcast
8:50 PM 51.8 °F 41.0 °F 67% 29.65 in 6.2 mi SSW 15.0 mph - N/A   Overcast
9:50 PM 50.0 °F 41.0 °F 71% 29.68 in 6.2 mi South 15.0 mph - N/A   Overcast
10:50 PM 50.0 °F 41.0 °F 71% 29.68 in 6.2 mi South 9.2 mph - N/A   Overcast
11:50 PM 50 °F 43 °F 69% 29.71 in 12 mi South 11.5 mph - -   Overcast
11:50 PM 50.0 °F 42.8 °F 76% 29.68 in 6.2 mi South 11.5 mph - N/A   Overcast